Overview Statistics Trail Chart Weather Telemetry Raw packets
 

This is the latest recevied weather packets stored in our database for station/object OE5MMP-13. If no packets are shown the sender has not sent any weather packets the latest 10 day(s).

<< 7 8 9 10 11 12 13 >>
Time Temp. Humidity Pressure Rain* Wind** Luminosity Snow
1788547994 23.89° C 53% 1015.5 hPa 0 mm - 0 W/m² -
1788547394 23.89° C 54% 1015.3 hPa 0 mm - 0 W/m² -
1788546794 23.89° C 54% 1015.2 hPa 0 mm - 0 W/m² -
1788546194 23.89° C 54% 1015 hPa 0 mm - 0 W/m² -
1788545594 24.44° C 52% 1015 hPa 0 mm - 0 W/m² -
1788544994 24.44° C 52% 1014.9 hPa 0 mm - 0 W/m² -
1788544394 25° C 51% 1014.8 hPa 0 mm - 0 W/m² -
1788543794 25.56° C 49% 1014.6 hPa 0 mm - 5 W/m² -
1788543194 26.11° C 48% 1014.7 hPa 0 mm - 8 W/m² -
1788542595 26.67° C 45% 1014.8 hPa 0 mm - 11 W/m² -
1788541994 27.78° C 43% 1014.9 hPa 0 mm - 14 W/m² -
1788541394 28.33° C 41% 1015 hPa 0 mm - 31 W/m² -
1788540794 29.44° C 39% 1015.2 hPa 0 mm - 50 W/m² -
1788540194 29.44° C 38% 1015.3 hPa 0 mm - 74 W/m² -
1788539594 29.44° C 38% 1015.3 hPa 0 mm - 101 W/m² -
1788538994 29.44° C 37% 1015.4 hPa 0 mm - 133 W/m² -
1788538394 29.44° C 37% 1015.6 hPa 0 mm - 162 W/m² -
1788537794 29.44° C 37% 1015.6 hPa 0 mm - 194 W/m² -
1788537194 29.44° C 36% 1015.8 hPa 0 mm - 206 W/m² -
1788536594 29.44° C 36% 1016 hPa 0 mm - 247 W/m² -
1788535993 30° C 36% 1016 hPa 0 mm - 276 W/m² -
1788535394 30° C 36% 1016.2 hPa 0 mm - 302 W/m² -
1788534794 29.44° C 37% 1016.2 hPa 0 mm - 331 W/m² -
1788534193 29.44° C 37% 1016.3 hPa 0 mm - 344 W/m² -
1788533593 29.44° C 36% 1016.4 hPa 0 mm - 385 W/m² -

* Rain latest hour (hover to see other rain measurements)
** Current wind speed in m/s (hover to see current wind gust speed)